Location: Complexul Astronomic Baia Mare
(47.6577°N, 23.5639°E)
Time: 06:49:53
(UTC+03:00)

ISS - Pass Details

Date: 25 May 2017
Orbit: 402 x 408 km, 51.6° (Epoch: 29 May)

Event Time Altitude Azimuth Distance (km) Brightness Sun altitude
Rises 23:37:16 0° 257° (WSW) 2,329 0.2 -17.3°
Reaches altitude 10° 23:39:22 10° 261° (W) 1,469 -0.8 -17.4°
Maximum altitude 23:42:38 60° 342° (NNW) 470 -3.3 -17.7°
Drops below altitude 10° 23:45:54 10° 64° (ENE) 1,470 -1.0 -17.9°
Sets 23:48:00 0° 68° (ENE) 2,331 0.0 -18.0°
